Lorain / Elyria, OH

9:23 PM EDT on July 26, 2017 (GMT -0400)
Lorain County Regional

Weather History for KLPR - October, 2011

Change the Weather History Date:

Wednesday, October 19, 2011

  Actual Average (KCLE) Record (KCLE)
Temperature  
Mean Temperature 54 °F -  
Max Temperature 59 °F 57 °F 84 °F (1953)
Min Temperature 51 °F 40 °F 29 °F (1986)
Degree Days  
Heating Degree Days 11    
Growing Degree Days 4 (Base 50)    
Moisture  
Dew Point 52 °F    
Average Humidity 90    
Maximum Humidity 94    
Minimum Humidity 80    
Precipitation  
Precipitation 1.60 in - - ()
Sea Level Pressure  
Sea Level Pressure 29.39 in    
Wind  
Wind Speed 10 mph (ENE)    
Max Wind Speed 24 mph    
Max Gust Speed 34 mph    
Visibility 6 miles    
Events Rain    
Averages and records for this station are not official NWS values.
T = Trace of Precipitation, MM = Missing Value Source: NWS Daily Summary

Daily Weather History Graph

Daily Weather History Graph

Search for Another Location

Airport or City:

Trip Planner

Search our weather history database for the weather conditions in past years. The results will help you decide how hot, cold, wet, or windy it might be!

Date:

Astronomy

Oct. 19, 2011 Rise Set
Actual Time 7:44 AM EDT 6:42 PM EDT
Civil Twilight 7:16 AM EDT 7:10 PM EDT
Nautical Twilight 6:44 AM EDT 7:42 PM EDT
Astronomical Twilight 6:12 AM EDT 8:14 PM EDT
Moon No Moon Rise 2:16 PM EDT (10/19)
Length of Visible Light 11h 53m
Length of Day
10h 57m
Waning Gibbous, 55% of the Moon is Illuminated
Oct 19
Waning Gibbous
Oct 19
Last Quarter
Oct 26
New
Nov 2
First Quarter
Nov 10
Full

Hourly Weather History & Observations

Time (EDT) Temp. Dew Point Humidity Pressure Visibility Wind Dir Wind Speed Gust Speed Precip Events Conditions
12:53 AM 51.1 °F 45.0 °F 80% 29.73 in 10.0 mi East 9.2 mph - 0.00 in Rain Light Rain
1:53 AM 51.1 °F 46.0 °F 83% 29.69 in 10.0 mi East 10.4 mph - 0.01 in Rain Light Rain
3:53 AM 52.0 °F 48.0 °F 86% 29.62 in 10.0 mi ENE 10.4 mph - 0.02 in Rain Light Rain
4:26 AM 51.8 °F 48.2 °F 88% 29.61 in 10.0 mi ENE 9.2 mph 17.3 mph 0.00 in Rain Light Rain
4:35 AM 51.8 °F 48.2 °F 88% 29.61 in 10.0 mi ENE 9.2 mph - 0.00 in   Overcast
4:53 AM 52.0 °F 48.9 °F 89% 29.61 in 10.0 mi ENE 8.1 mph 17.3 mph 0.00 in   Overcast
5:53 AM 53.1 °F 48.9 °F 86% 29.59 in 10.0 mi East 9.2 mph - N/A   Overcast
6:36 AM 51.8 °F 48.2 °F 88% 29.57 in 10.0 mi ENE 5.8 mph - N/A   Overcast
6:53 AM 52.0 °F 48.9 °F 89% 29.57 in 8.0 mi East 6.9 mph - 0.01 in Rain Light Rain
7:53 AM 53.1 °F 50.0 °F 89% 29.56 in 6.0 mi East 5.8 mph - 0.02 in Rain Light Rain
8:53 AM 52.0 °F 50.0 °F 93% 29.55 in 2.5 mi NE 3.5 mph - 0.07 in Rain Heavy Rain
9:03 AM 51.8 °F 50.0 °F 94% 29.55 in 3.0 mi East 3.5 mph - 0.02 in Rain Rain
9:25 AM 51.8 °F 50.0 °F 94% 29.55 in 2.5 mi ENE 3.5 mph - 0.05 in Rain Rain
9:53 AM 53.1 °F 50.0 °F 89% 29.54 in 2.5 mi ENE 3.5 mph - 0.09 in Rain Rain
12:45 PM 53.6 °F 51.8 °F 94% 29.47 in 2.5 mi ENE 4.6 mph - 0.10 in Rain Rain
1:49 PM 53.6 °F 51.8 °F 94% 29.44 in 1.8 mi ENE 8.1 mph - 0.15 in Rain Heavy Rain
1:53 PM 54.0 °F 51.1 °F 90% 29.44 in 2.0 mi ENE 8.1 mph - 0.16 in Rain Heavy Rain
2:08 PM 53.6 °F 51.8 °F 94% 29.43 in 2.0 mi ENE 6.9 mph - 0.04 in Rain Rain
2:53 PM 55.0 °F 52.0 °F 89% 29.40 in 2.0 mi ENE 11.5 mph - 0.13 in Rain Heavy Rain
3:24 PM 55.4 °F 53.6 °F 94% 29.38 in 2.5 mi ENE 11.5 mph 19.6 mph 0.07 in Rain Rain
3:39 PM 55.4 °F 53.6 °F 94% 29.37 in 3.0 mi ENE 13.8 mph 19.6 mph 0.09 in Rain Rain
3:53 PM 57.0 °F 54.0 °F 89% 29.35 in 4.0 mi ENE 18.4 mph 24.2 mph 0.12 in Rain Rain
4:53 PM 57.0 °F 54.0 °F 89% 29.31 in 4.0 mi ENE 13.8 mph 28.8 mph 0.07 in Rain Light Rain
5:53 PM 57.0 °F 54.0 °F 89% 29.27 in 3.0 mi ENE 17.3 mph 25.3 mph 0.13 in Rain Heavy Rain
6:15 PM 57.2 °F 53.6 °F 88% 29.25 in 1.8 mi ENE 16.1 mph 24.2 mph 0.11 in Rain Heavy Rain
6:28 PM 57.2 °F 53.6 °F 88% 29.24 in 2.5 mi ENE 18.4 mph 25.3 mph 0.20 in Rain Heavy Rain
6:39 PM 57.2 °F 53.6 °F 88% 29.24 in 4.0 mi NE 13.8 mph 32.2 mph 0.25 in Rain Rain
6:53 PM 57.0 °F 54.0 °F 89% 29.23 in 3.0 mi ENE 19.6 mph 32.2 mph 0.33 in Rain Heavy Rain
7:25 PM 57.2 °F 53.6 °F 88% 29.20 in 2.5 mi ENE 24.2 mph 34.5 mph 0.14 in Rain Heavy Rain
7:36 PM 57.2 °F 53.6 °F 88% 29.20 in 4.0 mi NE 17.3 mph 31.1 mph 0.17 in Rain Light Rain
7:53 PM 57.0 °F 54.0 °F 89% 29.20 in 4.0 mi NE 17.3 mph 31.1 mph 0.19 in Rain Rain
8:53 PM 57.0 °F 55.0 °F 93% 29.14 in 6.0 mi NE 11.5 mph 19.6 mph 0.23 in Rain Rain
9:53 PM 57.9 °F 55.9 °F 93% 29.12 in 10.0 mi East 6.9 mph - 0.00 in   Overcast
10:04 PM 57.2 °F 55.4 °F 94% 29.12 in 10.0 mi East 8.1 mph - N/A   Overcast
10:53 PM 57.9 °F 55.0 °F 90% 29.16 in 10.0 mi South 17.3 mph 23.0 mph 0.00 in Rain Light Rain
11:20 PM 55.4 °F 51.8 °F 88% 29.13 in 10.0 mi SSW 11.5 mph 25.3 mph 0.02 in Rain Light Rain
11:53 PM 55.0 °F 51.1 °F 86% 29.15 in 10.0 mi South 19.6 mph 28.8 mph 0.02 in   Overcast